星链-32206 (STARLINK-32206)

导读

STARLINK-32206是美国太空探索技术公司Starlink卫星互联网项目的一员,于2024年7月27日发射升空,属于该星座组网批量部署的卫星之一。它继承Starlink系列低轨卫星设计,为全球提供高速宽带互联网服务,尤其支持偏远地区网络覆盖,进一步完善了星链低轨星座的服务能力与覆盖范围。

基本信息
目录编号:
60273
目录名称:
STARLINK-32206
国际标识:
2024-131U
轨道中心:
EARTH
卫星名称:
星链-32206 (STARLINK-32206)
卫星全名:
星链-32206 (STARLINK-32206)
卫星状态:
在轨 (已飞行776 天)
发射日期:
2024-07-27 UTC
国别 :
美国 (US)
星等 :
--
该卫星已列入 空间交会检测服务 Space Conjunction Data Service (SCDS) ,当前飞行风险评估等级: 无高风险
轨道信息
数据来源 国际轨道数据
星历时间: 2026-09-11T19:23:51+0800
9小时前
查看轨道信息
半长轴: 6840.858km
偏心率: 0.0001212
轨道倾角: 53.159°
近地点辐角 88.523°
升交点赤经 268.039°
平近点角 271.591°
近地点: 461.891km
远地点: 463.551km
周期: 93.848分钟
每日圈数: 15.343941
详细信息
卫星平台:
Starlink v2.0 mini
运营商:
太空探索技术公司
运营商所在国:
美国
制造商(研发单位):
太空探索技术公司
制造商所在国:
美国
使用方式:
暂无
卫星简介
星链(Starlink)计划是由太空探索技术公司(SpaceX)提出的一个巨型低轨卫星互联网星座项目,计划在2019年至2024年间在太空搭建由约1.2万颗卫星组成的“星链”网络,其中1584颗将部署在地球上空550千米处的近地轨道,并从2020年开始工作。该卫星仍在工作。
2D轨道图
3D轨道图
轨道高度分析图
轨道倾角分析图
轨道综合分析图
查看轨道综合分析图
交会数据列表
事件ID 空间交会对象 最接近时刻(TCA) 交会距离 交会风险概率(CRP) 交会风险指数(CRI) 操作
CDM_260913-090106-027306-925321
2026-09-13T
09:01:11+0000
1.080 km
极远距离
1.253574E-5 中风险 0.57
CDM_260913-142906-027306-925321
2026-09-13T
14:29:27+0000
2.073 km
极远距离
1.676923E-6 低风险 0.39
CDM_260912-130005-270006-027323
2026-09-12T
13:00:18+0000
2.705 km
极远距离
1.275793E-6 低风险 0.37
与全量物体交会距离演化趋势
与全量物体交会风险概率演化趋势